Dewpoint
50 50 51 50 51 50 50 49 48 49 49 49 49 49 50 51 51 52 52 52 51 52 53 53 53 54 54 54 55 55 55 54 53 52 50 49 48 47 46 46 46 45
48 48 48 48 48 47 48 48 49 49 49 48 48 48 48 47 47 48 49 49 49 49 50 50 51 52 53 53 53 54 54 53 53 52 51 49 49 48 47 47 46 47
47 47 47 47 48 48 48 47 47 48 48 48 47 46 46 45 46 46 47 47 48 47 47 48 49 50 51 52 52 52 52 52 51 51 50 49 49 48 48 48 47 46
46 46 47 47 47 47 46 46 46 46 45 46 46 46 45 45 44 45 45 45 46 46 46 46 47 48 49 50 50 50 51 51 51 50 49 49 48 48 48 47 46 46
45 45 45 46 46 45 44 45 46 45 45 46 44 43 43 43 43 43 43 44 44 45 45 45 46 47 47 48 49 49 49 49 49 48 48 48 48 47 47 47 45 44
43 44 45 45 45 45 45 45 46 45 45 44 44 43 44 43 43 43 42 43 42 43 44 44 45 46 46 46 47 48 48 46 45 46 46 46 45 45 46 45 44 43
43 43 43 44 44 44 45 45 45 44 44 44 40 43 41 42 42 42 43 42 42 42 43 43 44 44 43 44 44 45 44 44 43 43 43 43 42 42 41 42 42 43
42 41 43 42 42 43 43 44 43 42 42 39 41 42 41 42 42 42 41 41 41 41 41 41 42 44 42 41 41 42 42 44 43 42 42 42 41 42 40 41 41 41
39 40 40 40 41 41 41 41 41 39 38 41 41 40 38 40 41 40 40 40 40 40 40 40 41 41 41 40 41 41 42 41 42 42 42 42 41 41 41 40 40 40
39 39 37 38 39 41 40 40 40 40 38 39 40 39 39 38 38 40 39 39 40 39 39 39 39 39 40 39 40 41 41 41 41 41 41 41 42 41 41 40 39 39
39 38 38 38 39 40 40 40 39 39 38 40 39 39 39 37 37 37 38 39 40 40 39 39 39 39 40 39 39 39 40 41 41 41 40 40 41 41 39 40 39 39
39 37 38 39 39 39 39 38 37 37 38 38 39 40 38 37 38 37 38 39 39 39 39 39 38 39 39 40 39 38 38 39 40 40 40 40 40 40 39 39 39 39
39 39 40 39 38 38 37 37 37 36 37 38 36 37 38 38 37 37 36 37 38 38 38 38 38 38 39 39 38 38 38 39 39 39 39 39 39 39 39 38 38 38
40 39 38 38 37 36 37 36 36 36 36 35 35 36 37 38 38 37 37 36 37 37 37 37 37 38 38 38 38 37 37 38 38 38 38 38 37 37 37 37 37 37
40 38 36 36 36 37 37 36 36 36 35 35 36 36 37 37 37 37 37 37 36 36 36 36 36 38 38 38 38 37 37 37 37 37 37 37 37 36 36 36 36 35
38 37 37 35 36 37 37 36 35 35 35 35 36 36 36 36 36 36 37 37 37 36 35 36 36 37 36 37 37 37 37 37 37 37 36 36 36 35 35 34 34 34
36 36 35 36 36 36 35 35 35 34 34 35 35 35 35 35 35 36 36 36 36 36 35 35 36 35 36 38 38 38 37 36 36 36 36 36 36 35 35 34 33 33
36 35 35 36 35 36 35 35 34 34 34 34 35 34 35 34 34 35 35 35 35 35 35 35 35 35 37 38 38 38 37 36 36 36 35 36 35 35 35 33 32 31
34 35 35 35 35 35 34 34 34 34 34 34 35 35 32 34 35 34 35 34 34 34 35 35 35 36 37 37 38 38 38 36 35 35 34 34 35 34 33 32 31 30
34 34 34 35 35 34 33 33 33 34 34 34 34 33 34 34 33 34 34 34 34 34 34 34 33 34 36 37 36 37 37 37 34 33 33 33 33 32 32 30 30 29
33 33 34 34 34 34 33 34 34 34 34 34 34 34 34 34 34 34 33 33 33 33 33 33 33 34 35 36 36 37 37 37 34 33 32 32 32 31 30 29 28 28
32 33 33 33 33 33 33 34 34 34 34 34 33 33 33 32 33 32 33 32 32 32 31 32 32 34 35 35 36 36 36 35 33 32 32 31 31 29 28 27 27 27
32 32 33 33 33 33 33 34 34 34 34 32 32 33 32 32 32 32 32 32 31 30 31 31 31 33 34 34 35 36 36 34 32 31 31 30 29 27 26 25 25 26
32 32 32 33 33 33 33 34 33 33 33 32 33 33 32 32 31 31 30 30 30 30 30 30 30 31 33 34 34 35 35 33 32 31 30 29 28 25 26 26 26 28
32 31 31 32 32 33 33 33 33 33 32 28 31 31 32 30 29 30 29 28 28 29 30 30 29 30 32 33 34 35 34 33 31 30 29 27 26 25 25 25 26 27
31 31 31 31 32 32 32 32 32 30 29 29 29 29 30 27 27 28 28 28 26 27 28 29 28 29 31 33 34 35 35 32 30 28 27 26 25 24 24 25 27 27